Regional Weather Roundup
Issued by NWS New Orleans/Baton Rouge, LA

Home | Current Version | Previous Version | Text Only | Print | Product List | Glossary On
Versions: 1 2 3 4 5 6 7 8 9 10 11 12 13 14 15 16 17 18 19 20 21 22 23 24 25 26 27 28 29 30 31 32 33 34 35 36 37 38 39 40 41 42 43 44 45 46 47 48 49 50
000
ASUS44 KLIX 240913
RWRLIX
NEW ORLEANS REGIONAL WEATHER ROUNDUP
NATIONAL WEATHER SERVICE NEW ORLEANS LA
400 AM CDT MON APR 24 2017

NOTE: "FAIR" INDICATES FEW OR NO CLOUDS BELOW 12,000 FEET WITH NO
      SIGNIFICANT WEATHER AND/OR OBSTRUCTIONS TO VISIBILITY.
      SKY/WX - SKY CONDITION AND SIGNIFICANT WEATHER.
      TMP - AIR TEMPERATURE.     DP    - DEWPOINT TEMPERATURE.
      RH  - RELATIVE HUMIDITY.   PRES  - PRESSURE.
      HI  - HEAT INDEX.          WCI   - WIND CHILL INDEX.

*  THESE STATIONS ARE NOT NWS OR FAA STATIONS AND ARE NOT UNDER
   NWS QUALITY CONTROL.

LAZ038-040-048-061>063-065>067-069-241000-
SOUTHEAST LOUISIANA

CITY           SKY/WX    TMP DP  RH WIND       PRES   REMARKS
N.O. INTL ARPT PTCLDY    53  50  89 W6        29.87F
N.O. LAKEFRONT CLEAR     63  50  62 NW14      29.87F
N.O. DOWNTOWN*   N/A     57  51  80 CALM        N/A
RESERVE*       NOT AVBL
SLIDELL        PTCLDY    52  50  93 CALM      29.85F
BATON ROUGE    CLEAR     51  49  92 CALM      29.89F
BOOTHVILLE     CLEAR     62  51  67 NW10      29.87F
BELLE CHASSE   CLEAR    N/A N/A N/A MISG      29.87F
BOGALUSA*      NOT AVBL
GALLIANO*      SUNNY     51  48  90 CALM      29.89F
NEW ROADS*       N/A     49  48  98 CALM      29.90S
GONZALES*        N/A     49  49  99 CALM      29.88F
HAMMOND*       CLEAR     50  46  87 CALM      29.88S
HOUMA*         CLEAR     50  50  99 CALM      29.89F FOG
PORT FOURCHON* SUNNY     59  52  77 N6        29.88F

$$

MSZ070-080>082-241000-
SOUTHERN MISSISSIPPI

CITY           SKY/WX    TMP DP  RH WIND       PRES   REMARKS
MCCOMB         CLEAR     49  46  90 NW3       29.86F
GULFPORT       CLEAR     52  50  93 W3        29.84F
BILOXI         CLEAR     55  51  86 NW8       29.84F
PASCAGOULA     CLEAR     52  48  86 CALM      29.83F

$$

COASTAL OBSERVATIONS
LAKE AND NEARSHORE STATIONS

STATION/POSITION TIME  TEMP    WIND        PRES    WAVE
                       AIR SEA DIR/SP/G            HT/PER
                 (UTC) (F)     (DEG/KT/KT) (MB)    (FT/S)
PASCAGOULA       0848   56     320/  4/  7 1009.8
WAVELAND YACHT   0848   55 73  300/  7/  9 1010.2
GRAND ISLE       0848   61 73  320/ 10/ 12 1011.4
SOUTHWEST PASS   0848          350/ 20/ 24   N/A
NEW CANAL        0848   63 73  340/  8/ 12 1011.3
SHELL BEACH      0848   63 73  320/ 13/ 17 1011.0

OFFSHORE STATIONS

STATION/POSITION TIME  TEMP    WIND        PRES    WAVE
                       AIR SEA DIR/SP/G            HT/PER
                 (UTC) (F)     (DEG/KT/KT) (MB)    (FT/S)
64 S DAUPHIN ISL 0850   64 74  330/ 16/ 19 1010.1    4/ 6

$$




USA.gov is the U.S. government's official web portal to all federal, state and local government web resources and services.